Location: Crescent
(42.8242°N, 73.7329°W)
Time: 07:44:58
(UTC+00:00)

Vanguard 1 Rocket - Pass Details

Date: 25 February 2026
Orbit: 653 x 4214 km, 34.3° (Epoch: 12 March)

Event Time Altitude Azimuth Distance (km) Brightness Sun altitude
Rises 22:27:28 0° 275° (W) 5,471 13.1 1.3°
Reaches altitude 10° 22:30:59 10° 266° (W) 4,899 13.3 0.7°
Maximum altitude 22:43:47 33° 209° (SSW) 4,559 11.5 -1.6°
Drops below altitude 10° 23:03:10 10° 156° (SSE) 7,306 11.8 -5.1°
Sets 23:10:17 0° 148° (SSE) 8,445 12.1 -6.4°
